Date String (YYYY-MM-DD hh:mm:ss) UTC,Instrument flags,Ambient pressure (hPa),Sample flow (lpm),Bypass flow (lpm),Sample temperature (°C),Ambient temperature (°C),ASC tube jacket temperature (°C),LED temperature (°C),Box temperature (°C),Sample RH (%),Span deviation,Mass concentration (μg/m³),Mass concentration (μg/m³),Mass concentration (μg/m³)
DateTimeUTC,F1_M11,P_M11,Q1_M11,Q2_M11,T1_M11,T2_M11,T3_M11,T4_M11,T5_M11,U1_M11,ZSPAN_M11,X0_M11,X2_M11,X1_M11
2023-04-06 13:00:00,,0834.7,5.00,0.00,22.5,21.6,00.0,30.8,24.0,07.6,0000.0,0004.16,0001.85,0001.46
2023-04-06 13:01:00,,0834.7,5.01,0.00,22.5,21.4,00.0,30.8,24.0,07.6,0000.0,0004.25,0001.86,0001.45
2023-04-06 13:02:00,,0834.7,5.00,0.00,22.5,21.2,00.0,30.8,23.9,07.6,0000.0,0004.58,0001.90,0001.46
2023-04-06 13:03:00,,0834.7,5.01,0.00,22.4,21.1,00.0,30.8,23.8,07.6,0000.0,0004.84,0001.92,0001.47
2023-04-06 13:04:00,,0834.8,4.99,0.00,22.4,20.9,00.0,30.8,23.8,07.7,0000.0,0004.82,0001.91,0001.47
2023-04-06 13:05:00,,0834.8,4.99,0.00,22.3,20.7,00.0,30.7,23.7,07.8,0000.0,0004.75,0001.91,0001.46
2023-04-06 13:06:00,,0834.8,5.01,0.00,22.3,20.6,00.0,30.7,23.6,07.9,0000.0,0004.49,0001.86,0001.46
2023-04-06 13:07:00,,0834.8,5.01,0.00,22.3,20.7,00.0,30.7,23.7,07.7,0000.0,0003.82,0001.88,0001.45
2023-04-06 13:08:00,,0835.0,4.99,0.00,22.4,21.6,00.0,30.6,24.1,07.7,0000.0,0003.64,0001.88,0001.44
2023-04-06 13:09:00,,0835.2,5.00,0.00,22.5,22.7,00.0,30.6,24.5,07.5,0000.0,0004.25,0001.88,0001.42
2023-04-06 13:10:00,,0835.3,5.00,0.00,22.6,23.0,00.0,30.7,24.5,07.3,0000.0,0005.12,0001.87,0001.40
2023-04-06 13:11:00,,0835.3,4.99,0.00,22.6,22.7,00.0,30.7,24.3,07.5,0000.0,0005.19,0001.84,0001.38
2023-04-06 13:12:00,,0835.1,4.99,0.00,22.6,22.3,00.0,30.8,24.0,07.5,0000.0,0005.04,0001.79,0001.35
2023-04-06 13:13:00,,0834.8,5.01,0.00,22.5,21.8,00.0,30.8,23.9,07.9,0000.0,0004.92,0001.73,0001.32
2023-04-06 13:14:00,,0834.8,5.00,0.00,22.5,21.5,00.0,30.8,23.8,07.7,0000.0,0004.28,0001.67,0001.29
2023-04-06 13:15:00,,0834.7,5.00,0.00,22.4,21.2,00.0,30.8,23.7,07.8,0000.0,0004.22,0001.63,0001.27
2023-04-06 13:16:00,,0834.7,5.01,0.00,22.4,20.8,00.0,30.8,23.7,07.8,0000.0,0004.20,0001.62,0001.25
2023-04-06 13:17:00,,0834.7,5.01,0.00,22.3,20.5,00.0,30.8,23.5,07.7,0000.0,0004.15,0001.60,0001.23
2023-04-06 13:18:00,,0834.7,4.99,0.00,22.2,20.4,00.0,30.7,23.5,07.9,0000.0,0004.13,0001.58,0001.20
2023-04-06 13:19:00,,0835.0,5.01,0.00,22.3,21.4,00.0,30.7,24.0,08.0,0000.0,0004.08,0001.58,0001.19
2023-04-06 13:20:00,,0835.5,5.01,0.00,22.5,22.7,00.0,30.6,24.4,07.8,0000.0,0003.95,0001.59,0001.20
2023-04-06 13:21:00,,0835.3,5.00,0.00,22.6,23.3,00.0,30.7,24.6,07.5,0000.0,0003.01,0001.59,0001.20
2023-04-06 13:22:00,,0835.4,4.99,0.00,22.6,22.9,00.0,30.8,24.3,07.6,0000.0,0003.02,0001.60,0001.21
2023-04-06 13:23:00,,0835.1,5.01,0.00,22.6,22.5,00.0,30.8,24.1,07.4,0000.0,0002.99,0001.61,0001.21
2023-04-06 13:24:00,,0835.1,5.01,0.00,22.5,22.0,00.0,30.8,23.9,07.5,0000.0,0003.49,0001.65,0001.23
2023-04-06 13:25:00,,0835.4,5.00,0.00,22.5,21.6,00.0,30.8,23.8,07.6,0000.0,0004.62,0001.69,0001.26
2023-04-06 13:26:00,,0835.4,4.99,0.00,22.4,21.2,00.0,30.8,23.8,07.5,0000.0,0004.64,0001.71,0001.27
2023-04-06 13:27:00,,0835.4,5.00,0.00,22.3,20.9,00.0,30.8,23.7,07.7,0000.0,0004.66,0001.73,0001.29
2023-04-06 13:28:00,,0835.3,5.00,0.00,22.3,20.6,00.0,30.8,23.6,07.9,0000.0,0004.69,0001.73,0001.30
2023-04-06 13:29:00,,0835.4,4.99,0.00,22.3,20.4,00.0,30.7,23.6,07.7,0000.0,0004.71,0001.71,0001.32
2023-04-06 13:30:00,,0835.4,5.00,0.00,22.2,20.3,00.0,30.7,23.5,07.7,0000.0,0004.70,0001.69,0001.32
2023-04-06 13:31:00,,0835.3,5.01,0.00,22.2,20.5,00.0,30.7,23.6,07.8,0000.0,0004.59,0001.67,0001.31
2023-04-06 13:32:00,,0834.9,5.01,0.00,22.3,21.8,00.0,30.6,24.1,07.9,0000.0,0004.16,0001.65,0001.31
2023-04-06 13:33:00,,0835.0,5.00,0.00,22.5,22.9,00.0,30.6,24.4,07.7,0000.0,0004.03,0001.63,0001.30
2023-04-06 13:34:00,,0835.0,4.98,0.00,22.5,22.8,00.0,30.7,24.3,07.9,0000.0,0004.43,0001.68,0001.29
2023-04-06 13:35:00,,0835.0,5.00,0.00,22.5,22.4,00.0,30.7,24.0,07.9,0000.0,0004.60,0001.69,0001.27
2023-04-06 13:36:00,,0835.0,5.00,0.00,22.4,21.8,00.0,30.8,23.8,07.9,0000.0,0003.60,0001.66,0001.24
2023-04-06 13:37:00,,0835.0,5.00,0.00,22.4,21.3,00.0,30.7,23.6,07.7,0000.0,0003.70,0001.66,0001.21
2023-04-06 13:38:00,,0835.0,5.00,0.00,22.3,20.8,00.0,30.7,23.5,07.6,0000.0,0003.81,0001.66,0001.17
2023-04-06 13:39:00,,0835.0,4.99,0.00,22.3,20.5,00.0,30.7,23.5,07.5,0000.0,0003.87,0001.68,0001.15
2023-04-06 13:40:00,,0835.0,5.00,0.00,22.2,20.4,00.0,30.7,23.4,07.7,0000.0,0003.76,0001.67,0001.12
2023-04-06 13:41:00,,0835.1,5.01,0.00,22.2,20.2,00.0,30.7,23.4,07.8,0000.0,0003.71,0001.67,0001.11
2023-04-06 13:42:00,,0835.1,5.01,0.00,22.2,20.8,00.0,30.6,23.6,07.8,0000.0,0003.53,0001.61,0001.10
2023-04-06 13:43:00,,0835.2,5.00,0.00,22.3,22.4,00.0,30.6,24.2,07.9,0000.0,0003.52,0001.60,0001.09
2023-04-06 13:44:00,,0835.3,4.99,0.00,22.5,23.1,00.0,30.6,24.3,07.9,0000.0,0003.54,0001.61,0001.09
2023-04-06 13:45:00,,0835.3,4.99,0.00,22.5,22.8,00.0,30.7,24.1,08.0,0000.0,0003.37,0001.58,0001.08
2023-04-06 13:46:00,,0835.3,5.01,0.00,22.4,22.2,00.0,30.7,23.9,08.4,0000.0,0002.92,0001.57,0001.09
2023-04-06 13:47:00,,0835.3,5.00,0.00,22.4,21.7,00.0,30.7,23.8,09.5,0000.0,0002.94,0001.61,0001.12
2023-04-06 13:48:00,,0835.3,5.00,0.00,22.4,21.3,00.0,30.7,23.7,09.8,0000.0,0003.06,0001.69,0001.20
2023-04-06 13:49:00,,0835.2,5.00,0.00,22.3,21.0,00.0,30.7,23.6,09.5,0000.0,0003.17,0001.78,0001.28
2023-04-06 13:50:00,,0835.2,5.00,0.00,22.2,20.7,00.0,30.7,23.5,09.3,0000.0,0003.75,0001.87,0001.36
2023-04-06 13:51:00,,0835.3,5.00,0.00,22.2,20.6,00.0,30.7,23.5,08.9,0000.0,0004.82,0001.98,0001.43
2023-04-06 13:52:00,,0835.3,5.00,0.00,22.2,20.5,00.0,30.7,23.5,08.9,0000.0,0006.09,0002.08,0001.49
2023-04-06 13:53:00,,0835.3,5.00,0.00,22.2,20.9,00.0,30.6,23.7,08.6,0000.0,0006.41,0002.20,0001.54
2023-04-06 13:54:00,,0835.3,5.00,0.00,22.3,22.4,00.0,30.6,24.2,08.5,0000.0,0006.47,0002.25,0001.58
2023-04-06 13:55:00,,0835.2,4.99,0.00,22.5,23.4,00.0,30.6,24.6,08.4,0000.0,0006.58,0002.31,0001.63
2023-04-06 13:56:00,,0835.2,4.99,0.00,22.6,23.3,00.0,30.7,24.4,08.4,0000.0,0006.78,0002.39,0001.66
2023-04-06 13:57:00,,0835.3,5.00,0.00,22.6,22.9,00.0,30.8,24.3,08.7,0000.0,0007.41,0002.43,0001.69
2023-04-06 13:58:00,,0835.3,4.99,0.00,22.6,22.4,00.0,30.8,24.1,08.7,0000.0,0007.39,0002.46,0001.73
2023-04-06 13:59:00,,0835.3,5.00,0.00,22.5,22.0,00.0,30.8,24.0,08.5,0000.0,0007.36,0002.46,0001.72
